Current weather by "City, St" or "zip code"  
 
Advertise Here

Current Conditions: Pullman / Moscow Regional Airport, WA

Fair


66.0 F

Last Updated on May 29 2020, 11:53 pm PDT
Humidity: 73%
Wind Speed: N 0.0 mph
Barometer 29.86 in
Dewpoint: 57.0 F
Visibility: 10.00 mi
Precip: --
Heat Index: NA
Wind Chill: NA
Current conditions at:

Pullman / Moscow Regional Airport, WA (KPUW)

Lat: 46.74377 Lon: 117.11579

Local Radar Image active severe weather and emergency alerts image image weather storm and storm spotter reports image weather observation monitoring service image
Local
Radar
Active
Alerts
Storm Reports Obs
Monitoring

Sign-up For Email & Text Message Weather Alert Notification Services


Advertise Here

Observation History for Pullman / Moscow Regional Airport, WA


Time Wind
(mph)
Vis
(mi)
Weather Precip (in) Temperature (F) Relative
Humidity
Wind
Chill
(F)
Heat
Index
(F)
Pressure
Air Dwpt altimeter
(in)
sea level
(mb)
Rmks
11:53 pm PDT N 0.0 10.00 Fair -- 66.0 57.0 73% NA NA 29.86 1009.4
10:53 pm PDT N 0.0 10.00 Fair -- 66.0 57.9 75% NA NA 29.88 1010.1
9:53 pm PDT N 0.0 10.00 Fair -- 65.0 59.0 81% NA NA 29.89 1010.8
8:53 pm PDT N 0.0 10.00 Fair -- 68.0 60.1 76% NA NA 29.88 1010.5
7:53 pm PDT N 0.0 10.00 Fair -- 76.0 63.0 64% NA NA 29.89 1010.5
6:53 pm PDT N 0.0 10.00 Fair -- 80.0 60.1 51% NA 81 29.89 1010.5
5:53 pm PDT SE 4.6 10.00 Fair -- 81.0 59.0 47% NA 81 29.90 1011.0
4:53 pm PDT SE 6.9 10.00 Fair -- 81.0 60.1 49% NA 82 29.92 1011.3
3:53 pm PDT SE 8.1 10.00 Fair -- 82.0 60.1 47% NA 82 29.93 1012.1
2:53 pm PDT 4.6 10.00 Fair -- 80.0 57.9 47% NA 81 29.95 1012.8
1:53 pm PDT SE 8.1 10.00 Fair -- 78.0 57.9 50% NA NA 29.96 1013.3
12:53 pm PDT SE 10.4 10.00 Fair -- 77.0 57.9 52% NA NA 29.98 1013.9
11:53 am PDT SE 13.8 10.00 Mostly Cloudy -- 76.0 57.9 54% NA NA 29.98 1014.1
10:53 am PDT E 10.4 10.00 Fair -- 73.0 55.0 53% NA NA 29.98 1014.1
9:53 am PDT SE 8.1 10.00 Fair -- 68.0 54.0 61% NA NA 30.02 1015.6
8:53 am PDT E 9.2 10.00 Fair -- 67.0 52.0 59% NA NA 30.02 1015.6
7:53 am PDT E 12.7 10.00 Fair -- 67.0 48.9 53% NA NA 30.00 1014.6
6:53 am PDT E 9.2 10.00 Fair -- 63.0 48.9 60% 62 NA 29.99 1014.4
5:53 am PDT 3.5 10.00 Fair -- 59.0 48.9 69% NA NA 30.01 1014.8
4:53 am PDT 4.6 10.00 Fair -- 62.0 46.9 58% 62 NA 29.99 1014.2
3:53 am PDT NE 5.8 10.00 Fair -- 57.0 48.0 72% 56 NA 29.99 1014.4
2:53 am PDT N 0.0 10.00 Fair -- 56.0 50.0 81% NA NA 30.01 1015.1
1:53 am PDT N 0.0 10.00 Mostly Cloudy -- 57.0 50.0 78% NA NA 30.01 1015.0
12:53 am PDT N 0.0 10.00 Fair -- 57.0 48.9 74% NA NA 30.00 1014.8

Regional Weather Observation


Lewiston, Lewiston-Nez Perce County Airport, ID (KLWS)

Fair
71.0 F

Spokane, Spokane International Airport, WA (KGEG)

Mostly Cloudy
72.0 F

Fairchild Air Force Base, WA (KSKA)

A Few Clouds
69.0 F

Spokane, Felts Field, WA (KSFF)

Fair
66.0 F

Coeur dAlene Airport - Pappy Boyington Field, ID (KCOE)

Fair
65.0 F

Deer Park, Deer Park Airport, WA (KDEW)

Fair
63.0 F